RH
77 54 40 38 36 40 45 44 32 25 27 18 14 14 17 16 14 15 12 12 13 16 19 22 22 21 21 19 20 24 26 27 30 34 29 21 21 21 20 29 67 69 57
76 56 47 36 33 42 43 37 30 24 24 18 15 14 16 16 15 14 12 12 13 16 18 20 21 22 22 24 26 36 31 35 35 33 30 24 26 19 18 24 30 51 62
55 56 50 35 34 50 39 33 27 23 24 18 15 13 15 16 15 14 13 11 14 14 16 17 19 22 25 25 28 27 26 26 26 23 23 24 28 20 26 30 34 26 38
51 67 63 45 40 41 33 30 24 19 23 20 16 14 15 16 16 14 14 12 12 14 16 18 22 22 19 19 24 21 23 23 25 21 17 20 20 21 28 33 23 18 21
62 43 48 36 28 29 28 26 22 20 24 21 16 12 14 15 16 15 14 16 15 13 17 18 30 37 36 36 37 31 24 29 34 26 16 19 20 19 23 28 18 18 15
59 40 43 28 24 28 29 32 19 25 29 21 17 17 13 18 25 19 16 16 17 17 18 29 42 48 61 65 72 74 61 36 41 29 16 18 19 19 23 23 21 18 19
48 34 37 37 35 31 27 20 27 36 28 24 26 29 18 19 46 58 29 22 23 29 42 54 65 75 69 68 82 81 74 77 45 35 15 16 20 19 25 27 15 16 23
19 20 24 23 19 18 15 18 32 34 25 21 21 24 26 38 40 60 71 54 53 41 50 65 66 78 84 81 85 88 83 90 60 30 18 17 24 17 26 33 16 12 20
23 10 15 19 18 20 26 26 27 27 26 24 25 25 28 40 45 46 57 45 41 43 48 54 58 57 63 71 83 94 83 82 75 34 25 20 27 16 15 25 24 12 11
46 24 10 10 12 15 22 23 25 26 28 31 32 28 25 29 36 41 45 40 40 52 49 45 44 53 61 76 94 94 66 66 41 28 27 28 32 18 14 17 23 15 13
44 38 42 15 10 11 21 22 16 19 17 18 17 25 27 30 38 48 45 38 38 40 46 43 45 56 67 94 93 98 69 54 30 27 28 24 19 16 12 15 21 20 14
20 34 41 40 18 12 17 24 31 25 17 16 18 19 32 41 45 72 82 84 92 69 70 84 86 77 76 84 81 83 66 46 27 20 19 16 14 16 14 14 18 19 16
17 16 14 31 49 26 21 18 16 22 24 22 19 24 24 20 33 52 55 77 71 74 89 83 84 73 81 74 78 81 53 38 19 16 15 13 11 13 13 13 15 20 19
26 16 15 14 17 23 30 33 28 15 11 10 13 25 18 18 26 29 24 42 60 52 67 72 78 64 53 46 41 54 23 17 17 17 15 13 10 12 11 12 13 21 18
52 46 43 29 21 17 18 23 39 43 31 17 21 15 17 18 25 20 21 11 20 32 55 35 43 41 32 28 31 34 19 14 14 15 13 9 10 12 11 11 11 15 16
97 72 76 66 60 50 37 31 25 13 10 14 14 16 17 23 32 22 18 12 9 11 18 14 13 12 13 10 9 10 11 12 13 13 10 18 12 12 12 10 10 12 14
89 92 90 81 64 74 53 40 34 30 27 24 20 19 20 20 29 23 26 20 19 11 11 8 6 6 6 6 13 13 9 11 12 12 13 17 14 15 17 12 11 12 13
41 76 77 78 88 92 85 48 40 44 32 36 40 42 44 45 44 36 24 20 17 12 13 15 11 9 8 8 8 11 12 13 15 14 18 24 24 22 25 20 17 16 11
29 35 48 56 78 80 74 73 86 91 90 78 72 79 74 63 60 65 55 41 36 33 25 30 33 38 32 26 27 31 40 30 24 28 28 28 32 32 36 36 30 38 33
53 48 34 31 38 43 48 64 74 69 78 86 85 88 86 91 92 94 87 62 57 52 58 62 44 56 65 52 51 48 49 51 50 46 47 47 45 52 49 40 43 51 49
85 94 96 89 75 64 67 53 49 44 74 67 59 82 91 94 86 91 90 93 86 95 99 90 83 80 81 71 76 83 82 72 59 58 56 63 59 58 62 60 60 52 44
94 98 95 98 96 96 99 94 83 78 88 95 88 85 90 85 94 90 95 93 85 87 96 95 87 91 90 98 88 86 91 85 85 86 73 78 76 70 65 66 62 58 59
97 93 92 98 98 97 95 94 96 90 91 92 88 95 97 97 98 89 99 94 85 87 74 76 78 78 81 82 88 85 75 68 87 88 87 83 79 74 77 76 75 73 74
96 94 86 88 94 97 94 97 95 96 98 94 85 98 98 98 98 98 97 99 97 92 88 85 80 78 83 84 83 74 61 57 72 80 89 93 87 80 75 72 70 68 71
93 91 96 95 98 98 98 96 96 96 99 97 97 96 97 88 92 98 95 97 98 95 90 81 81 78 78 70 82 89 72 61 63 74 75 87 96 94 83 77 75 76 69
92 94 94 86 89 95 83 70 71 75 84 96 90 79 71 90 89 74 59 57 67 84 95 99 95 77 70 71 71 74 79 73 63 57 54 59 69 78 84 87 91 86 86
Wind_Speed
16 15 17 18 19 20 19 18 18 17 14 14 14 14 14 12 12 13 15 17 17 17 19 20 19 19 19 19 19 21 22 23 21 20 20 20 19 19 19 16 12 11 10
16 17 19 19 19 20 14 15 15 15 14 13 11 10 12 11 11 13 14 15 14 16 18 19 18 18 20 20 22 23 24 22 23 23 23 23 22 21 20 17 14 12 12
19 15 19 19 19 16 17 16 15 13 13 11 8 7 7 9 10 11 12 12 11 14 15 16 17 17 16 16 17 18 21 22 24 25 23 23 23 22 20 18 16 15 14
19 17 18 19 19 18 16 14 13 10 11 10 6 6 7 6 7 7 10 10 9 12 13 15 16 15 14 16 17 17 19 21 22 23 22 23 23 21 20 18 17 16 15
16 19 21 16 16 18 17 15 12 9 10 7 4 4 5 4 4 5 8 9 12 11 12 12 11 12 14 16 17 18 19 20 21 23 23 23 23 21 20 19 19 18 18
18 19 13 17 17 16 15 13 12 12 8 5 4 2 1 2 3 3 6 7 7 8 7 9 12 14 16 19 21 21 21 22 22 22 21 22 22 21 19 19 20 21 21
19 18 17 17 17 18 16 14 13 12 8 5 4 2 1 3 4 6 7 7 6 7 10 11 12 14 18 21 22 24 24 23 22 21 19 20 22 20 17 18 19 20 22
16 16 15 15 13 11 12 14 14 9 5 4 4 2 2 4 5 8 8 7 8 8 10 12 15 18 19 23 26 29 28 23 20 18 18 18 20 19 17 17 18 18 19
14 14 13 12 12 11 11 10 11 10 9 6 5 5 4 4 5 6 9 9 9 10 13 14 15 18 22 23 25 28 22 17 17 16 17 17 17 18 16 16 17 18 19
14 11 11 12 10 10 9 10 9 8 8 8 9 7 6 5 7 8 9 9 11 11 14 15 16 18 21 26 28 24 9 11 12 14 15 15 15 16 15 15 15 16 18
12 12 12 11 12 11 9 7 7 7 8 9 9 7 7 5 6 8 10 11 11 14 15 16 19 19 20 21 20 16 9 11 12 13 13 14 14 15 16 13 13 14 15
10 11 11 10 7 8 10 9 8 8 8 7 7 9 11 8 6 7 8 12 11 13 14 16 18 19 19 17 13 12 10 12 12 13 15 15 14 16 17 14 11 13 14
11 10 11 10 10 10 9 9 10 9 8 7 9 10 12 12 8 9 9 12 11 12 12 13 16 14 13 12 11 13 12 12 13 15 16 16 14 15 16 12 9 12 15
10 11 12 12 13 13 13 11 10 9 7 7 8 9 10 14 13 12 9 9 10 10 11 12 12 13 13 14 14 15 13 13 14 15 16 15 13 14 15 11 9 9 12
9 9 10 11 10 11 12 11 11 12 12 11 11 11 12 14 14 13 10 9 10 10 11 10 11 12 12 12 12 15 15 12 12 13 14 11 12 11 12 9 8 8 10
12 10 8 11 12 11 10 11 11 11 10 9 9 10 9 13 14 13 13 13 12 14 14 13 11 11 12 12 13 14 13 13 10 8 10 11 11 11 11 9 8 7 8
13 11 11 10 12 12 11 14 13 12 11 11 11 10 10 12 14 14 16 15 15 16 17 16 14 12 12 12 13 13 14 13 12 12 11 10 9 8 7 7 6 7 8
16 15 15 13 13 14 15 14 12 13 12 12 13 14 12 13 14 15 16 17 18 17 17 17 16 14 15 15 15 14 14 15 13 13 12 12 10 9 9 8 5 6 7
20 18 17 17 18 17 16 17 16 16 15 13 12 13 14 15 17 18 16 17 18 18 17 18 18 16 15 16 16 16 17 17 16 17 14 14 13 13 12 10 10 11 10
22 20 19 19 20 20 20 21 22 22 20 19 17 18 18 19 22 20 19 20 18 17 19 18 18 17 17 16 17 17 17 20 21 22 20 20 19 16 14 13 12 12 12
23 20 19 20 20 22 22 23 22 21 22 23 22 21 22 24 24 20 19 19 22 20 16 16 18 19 18 18 17 17 19 20 20 21 20 21 22 20 20 18 17 17 16
25 24 22 23 22 23 19 21 22 22 24 23 23 24 23 23 23 25 23 21 21 20 23 20 18 19 18 18 19 19 20 23 24 23 23 23 25 23 22 22 20 20 20
31 28 27 28 29 32 29 26 28 26 28 27 27 26 25 24 29 27 29 35 30 27 26 27 26 24 23 25 27 28 27 25 25 28 28 27 29 27 24 25 26 25 24
29 29 29 31 32 34 32 32 31 30 33 30 26 25 28 24 29 24 28 31 35 32 30 31 31 31 31 31 32 33 33 32 29 29 30 31 33 35 31 30 29 29 29
29 31 32 35 30 33 29 26 25 23 19 29 28 31 32 30 25 28 31 28 33 34 34 36 35 35 37 37 35 36 35 35 34 32 32 33 35 38 40 37 37 36 36
27 24 24 24 25 25 25 23 23 24 24 26 26 24 25 24 28 30 29 29 29 31 35 36 37 36 35 35 36 38 40 41 41 41 37 35 34 37 42 44 44 42 41
Wind_Direction
121 127 137 141 144 146 150 143 137 127 130 122 117 115 106 101 100 88 76 82 84 84 80 77 73 66 62 58 49 41 32 26 21 18 14 11 8 2 359 356 1 356 360
135 135 140 145 145 143 144 139 137 129 137 126 124 118 119 116 106 92 84 84 92 88 81 77 71 65 56 48 40 37 34 28 22 19 14 10 8 2 4 4 357 347 346
131 134 141 145 141 136 134 135 132 137 136 127 116 107 101 100 112 102 90 85 85 81 79 74 61 54 48 42 41 36 28 25 22 19 14 12 10 7 6 4 359 355 347
118 128 139 132 133 138 127 130 127 137 131 124 121 117 88 92 106 103 85 76 69 66 58 53 48 40 31 27 24 22 25 19 19 18 15 11 13 12 9 7 5 2 359
117 132 134 132 129 133 132 130 130 129 126 134 121 100 109 104 98 100 85 65 50 47 42 35 34 31 18 12 9 7 12 16 15 14 14 10 11 13 13 13 12 13 14
111 134 135 140 140 136 130 127 130 134 137 120 133 141 76 75 31 32 60 62 50 37 32 29 14 9 7 6 359 356 359 2 9 14 13 9 11 9 13 17 14 14 19
115 125 126 131 136 135 136 137 143 143 147 165 177 202 297 7 356 360 13 28 24 13 2 1 358 357 355 352 346 342 343 349 2 7 10 9 6 6 8 14 18 13 15
115 118 122 126 128 137 141 150 149 153 147 192 219 251 333 5 346 334 340 358 355 346 337 341 341 339 342 343 337 330 330 334 349 5 5 11 5 5 1 11 17 15 14
115 119 126 129 133 141 151 161 158 156 167 195 209 239 264 307 310 318 309 312 315 319 319 323 328 327 331 329 320 321 310 329 334 355 6 7 5 6 3 10 15 17 14
135 136 142 145 149 154 168 177 175 184 194 211 228 230 254 273 283 285 284 291 289 297 301 305 313 314 321 315 326 329 324 6 352 6 15 8 4 4 8 3 13 21 17
154 151 157 162 159 163 171 184 191 206 218 223 244 245 247 255 261 279 281 274 280 290 292 301 304 310 313 335 2 15 23 357 357 360 6 10 2 360 7 1 9 23 20
160 157 163 167 166 173 180 187 195 207 225 239 253 277 281 275 274 267 273 279 282 283 293 299 301 305 312 346 353 360 353 350 356 352 2 4 5 355 3 357 6 20 19
187 186 183 188 189 193 199 207 213 208 214 233 251 262 270 283 284 270 274 267 279 288 300 297 301 307 327 329 337 341 343 346 354 354 358 1 3 356 360 358 12 15 12
200 198 207 211 210 206 204 221 237 247 246 240 252 269 276 284 295 285 280 273 271 282 291 296 299 310 313 315 321 322 340 346 339 346 347 348 359 4 357 354 19 21 12
233 232 224 228 229 225 231 233 238 248 251 251 251 254 260 273 287 293 290 291 290 287 287 288 288 296 304 303 304 304 319 336 338 338 333 346 356 1 359 360 31 36 15
239 238 243 241 243 240 241 241 239 246 248 253 259 267 270 270 274 279 280 282 283 286 290 293 295 301 302 300 296 299 311 320 328 336 340 352 348 352 1 1 21 26 21
234 238 239 247 247 247 242 237 241 249 255 256 262 268 271 273 273 274 277 282 282 284 293 300 301 295 295 293 299 309 313 319 329 335 335 334 332 348 358 1 5 358 360
234 233 240 247 248 250 265 251 251 255 258 259 271 277 277 270 269 269 277 280 283 282 286 293 298 302 300 302 303 305 303 311 317 316 323 328 324 331 336 339 338 334 333
240 234 234 242 250 257 261 261 266 267 261 259 257 266 273 279 279 275 272 272 276 279 282 289 293 297 297 299 302 302 304 304 305 301 307 306 311 318 319 320 318 316 319
240 242 243 241 248 253 256 258 263 267 274 268 266 269 276 278 274 272 269 267 271 273 268 273 283 289 292 294 292 297 303 306 309 310 312 307 304 302 299 299 303 301 303
227 233 246 247 250 253 260 257 260 269 274 275 275 271 275 279 277 280 264 261 265 272 282 269 280 284 283 279 283 295 302 299 301 298 300 302 303 309 309 309 310 306 304
220 235 235 244 248 249 255 250 256 259 264 274 277 277 278 278 284 275 267 262 265 270 272 276 279 278 283 280 280 287 286 290 293 288 292 294 294 299 302 303 301 301 299
233 231 231 251 248 255 253 256 255 255 258 269 275 276 274 273 268 283 272 277 270 271 274 274 276 273 275 279 280 282 281 281 283 287 286 283 285 286 287 288 290 293 291
235 241 239 250 246 260 252 267 266 267 266 273 271 258 275 270 276 274 272 271 274 267 271 270 274 275 275 280 281 279 280 281 277 278 282 282 284 285 283 281 282 284 283
239 239 243 251 254 256 257 259 262 253 254 249 255 266 268 260 265 273 273 274 271 269 269 273 274 276 277 281 277 275 275 275 278 276 281 279 278 279 280 281 281 281 279
236 244 248 250 257 259 258 259 264 267 271 264 260 262 270 268 266 275 285 287 282 277 276 273 274 278 283 286 280 275 270 276 274 275 278 276 276 277 278 279 280 283 287